Flag for Germany Weather past 2 weeks in Bad Neuenahr-Ahrweiler, Rhineland-Palatinate, Germany

Now
54 °F

Passing clouds.


Feels Like: 52 °F
Forecast: 49 / 65 °F
Wind: 7 mph from South

Location: Bonn-Hangelar

Current Time: Aug 22, 2014 at 6:43:49 AM

Latest Report: Aug 22, 2014 at 6:00 AM


Visibility: 31 mi

Pressure: 29.93 "Hg

Humidity: 74%

Dew point: 45 °F

Location of Bad Neuenahr-AhrweilerLocation

Historic Weather in Bad Neuenahr-Ahrweiler — Graph

°F

Bad Neuenahr-Ahrweiler temperature yesterday

Maximum temperature yesterday: 62 °F (at 3:00 PM)
Minimum temperature yesterday: 47 °F (at 6:00 AM)
Average temperature yesterday: 54 °F

Past Weeks' High & Low Weather Summary

 TemperatureHumidityPressure
High76 °F (Aug 8, 2:00 PM)98% (Aug 9, 12:00 AM)30.13 "Hg (Aug 9, 12:00 AM)
Low47 °F (Aug 21, 6:00 AM)53% (Aug 8, 2:00 PM)29.57 "Hg (Aug 10, 6:00 PM)
Average59 °F80%29.88 "Hg
* Reported Aug 7 6:00 AM — Aug 22 6:00 AM, Bad Neuenahr-Ahrweiler, Weather by CustomWeather, © 2014

Note: Actual official high and low records may vary slightly from our data, if they occured in-between our weather recording intervals... More about our weather records

Advertising

Bad Neuenahr-Ahrweiler weather history for previous 24 hours

 ConditionsComfort  
Time TempWeatherWind HumidityBarometerVisibility
6:00 AM
Aug 22
54 °FPassing clouds.7 mph74%29.93 "Hg31 mi
5:00 AM53 °FOvercast.6 mph76%29.95 "Hg34 mi
4:00 AM54 °FOvercast.5 mph77%29.96 "Hg31 mi
3:00 AM54 °FOvercast.5 mph77%29.97 "Hg28 mi
2:00 AM54 °FOvercast.3 mph79%29.98 "Hg25 mi
1:00 AM54 °FOvercast.5 mph81%29.99 "Hg22 mi
12:00 AM55 °FPassing clouds.6 mph79%29.99 "Hg22 mi
11:00 PM
Aug 21
54 °FOvercast.3 mph86%30.00 "Hg17 mi
10:00 PM55 °FDrizzle. Low clouds.3 mph82%30.00 "Hg16 mi
9:00 PM57 °FOvercast.5 mph72%29.98 "Hg31 mi
8:00 PM57 °FOvercast.5 mph70%29.98 "Hg31 mi
7:00 PM58 °FOvercast.5 mph69%30.00 "Hg31 mi
6:00 PM61 °FPartly sunny.5 mph60%29.99 "Hg31 mi
5:00 PM60 °FOvercast.6 mph60%30.00 "Hg31 mi
4:00 PM60 °FOvercast.6 mph65%30.01 "Hg31 mi
3:00 PM62 °FOvercast.8 mph58%30.02 "Hg31 mi
2:00 PM60 °FPartly sunny.8 mph61%30.03 "Hg31 mi
1:00 PM61 °FScattered clouds.7 mph62%30.03 "Hg31 mi
12:00 PM58 °FScattered clouds.7 mph71%30.04 "Hg22 mi
11:00 AM57 °FPassing clouds.7 mph71%30.05 "Hg19 mi
10:00 AM54 °FPassing clouds.5 mph79%30.04 "Hg19 mi
9:00 AM51 °FPassing clouds.6 mph86%30.05 "Hg14 mi
8:00 AM48 °FPassing clouds.6 mph90%30.06 "Hg11 mi
7:00 AM47 °FPassing clouds.5 mph94%30.05 "Hg9 mi
6:00 AM47 °FPassing clouds.5 mph94%30.05 "Hg7 mi
Weather by CustomWeather, © 2014

See weather overviewHow to use our weather pages